Flag for United Kingdom Past Weather in Newport (Isle of Wight), England, United Kingdom — Yesterday and Last 2 Weeks

Now
64 °F

Mild.


Feels Like: 64 °F
Forecast: 60 / 66 °F
Wind: 22 mph from West

Location: Saint Catherine's Point

Current Time: Aug 17, 2017 at 8:35:44 pm

Latest Report: Aug 17, 2017 at 7:00 pm


Visibility: N/A

Pressure: 29.92 "Hg

Humidity: 93%

Dew Point: 62 °F

Location of Newport (Isle of Wight)Location

Past Weather in Newport (Isle of Wight) — Graph

°F

Newport (Isle of Wight) Temperature Yesterday

Maximum temperature yesterday: 66 °F (at 4:00 pm)
Minimum temperature yesterday: 60 °F (at 4:00 am)
Average temperature yesterday: 63 °F

High & Low Weather Summary for the Past Weeks

 TemperatureHumidityPressure
High70 °F (Aug 14, 12:50 pm)100% (Aug 17, 6:00 am)30.25 "Hg (Aug 17, 6:00 am)
Low53 °F (Aug 10, 6:00 am)47% (Aug 10, 6:00 pm)29.74 "Hg (Aug 3, 3:00 am)
Average62 °F83%30.03 "Hg
* Reported Aug 2 7:00 pm — Aug 17 7:00 pm, Newport (Isle of Wight). Weather by CustomWeather, © 2017

Note: Actual official high and low records may vary slightly from our data, if they occured in-between our weather recording intervals... More about our weather records

Advertising

Newport (Isle of Wight) Weather History for the Previous 24 Hours

Scroll right to see more
 ConditionsComfort  
Time TempWeatherWind HumidityBarometerVisibility
7:00 pm
Thu, Aug 17
64 °FMild.22 mph93%29.92 "HgN/A
6:00 pm64 °FMild.20 mph95%29.93 "HgN/A
5:00 pm64 °FMild.21 mph91%29.94 "HgN/A
4:00 pm65 °FMild.24 mph85%29.93 "HgN/A
3:00 pm65 °FMild.26 mph85%29.93 "HgN/A
2:00 pm65 °FMild.24 mph86%29.93 "HgN/A
1:00 pm65 °FMild.23 mph87%29.93 "HgN/A
12:00 pm65 °FMild.23 mph91%29.91 "HgN/A
11:00 am64 °FMild.25 mph95%29.90 "HgN/A
10:00 am64 °FMild.23 mph97%29.89 "HgN/A
9:00 am63 °FMild.23 mph100%29.88 "HgN/A
8:00 am63 °FMild.22 mph100%29.87 "HgN/A
7:00 am63 °FMild.18 mph100%29.85 "HgN/A
6:00 am64 °FMild.20 mph100%29.85 "HgN/A
5:00 am64 °FMild.20 mph99%29.86 "HgN/A
4:00 am64 °FMild.20 mph97%29.87 "HgN/A
3:00 am64 °FMild.14 mph93%29.89 "HgN/A
2:00 am64 °FMild.13 mph92%29.91 "HgN/A
12:50 am63 °FMild.15 mph93%29.95 "HgN/A
12:00 am63 °FMild.8 mph93%29.97 "HgN/A
11:00 pm
Wed, Aug 16
65 °FMild.9 mph83%29.99 "HgN/A
10:00 pm64 °FMild.13 mph82%30.00 "HgN/A
9:00 pm63 °FMild.12 mph79%30.02 "HgN/A
8:00 pm63 °FMild.7 mph85%30.04 "HgN/A
Weather by CustomWeather, © 2017

See weather overviewHow to use our weather pages